Theta_e
335 335 335 334 335 335 335 335 334 336 333 331 336 334 327 327 331 329 326 329 329 329 331 334 335 334 334 334 333 333 334 333 332 330 329 327 325 323 320 321 323 323 323 322 322 321 321 320 320 320 319 319 318 318 317 317 317 317 315 315 316 315 315 314 314 315 314 315 314 313 313 314 313 313 313 312 312 312 312 312 313 312 313 312 312
335 333 334 335 335 334 334 335 335 336 335 332 336 335 328 326 331 331 328 329 330 330 331 333 335 335 334 334 334 333 333 332 331 330 328 326 324 324 323 323 323 323 322 321 321 321 320 320 320 319 319 318 318 318 317 317 317 316 314 314 315 315 315 314 314 315 314 315 313 312 313 313 313 312 312 312 311 312 312 312 312 312 312 312 311
335 332 334 335 336 335 335 336 335 336 336 332 334 336 330 328 331 330 329 329 331 331 332 333 336 336 334 333 334 333 333 332 330 329 327 325 323 322 322 322 321 320 319 319 320 320 320 320 320 319 319 318 318 317 317 317 316 316 314 313 313 314 315 313 314 314 314 314 312 312 314 313 312 312 312 312 311 311 311 312 312 311 311 311 311
336 335 336 336 336 335 334 336 335 336 336 333 334 334 331 330 330 329 329 331 332 332 332 334 336 336 334 334 333 332 332 332 331 329 327 324 322 320 319 319 320 319 320 320 320 320 319 320 320 319 319 318 318 317 317 316 316 316 315 314 313 314 314 313 314 314 314 312 310 311 313 312 311 311 312 312 311 311 311 311 311 311 311 311 311
337 336 337 337 336 335 335 336 336 335 334 332 333 333 330 330 329 329 332 333 333 333 333 334 335 336 335 334 333 332 332 331 331 329 327 324 323 321 319 319 319 320 320 320 320 320 319 319 320 319 319 318 318 317 317 317 316 315 315 314 313 314 314 314 313 314 314 312 310 311 312 312 311 311 311 311 311 311 311 311 311 310 310 310 310
337 336 337 337 337 336 335 336 335 334 333 332 334 332 330 331 331 333 335 334 334 334 333 334 335 336 335 334 333 332 331 330 329 328 326 324 323 322 322 320 318 319 319 318 318 318 318 318 319 319 318 318 318 317 316 316 316 315 315 314 313 313 313 313 313 313 314 311 310 311 311 312 312 311 311 311 311 311 311 311 311 310 310 310 310
337 337 337 337 337 336 335 336 335 334 334 334 336 334 333 334 334 337 336 335 335 334 334 334 336 335 334 332 331 330 329 329 327 326 326 325 324 323 322 321 320 319 317 316 314 313 313 314 315 317 318 318 317 317 316 316 316 316 315 314 313 313 312 313 313 313 313 311 310 312 312 311 311 310 311 311 311 311 311 310 310 310 309 310 310
337 336 337 336 336 335 335 336 333 334 337 335 336 335 335 336 336 337 336 335 335 334 334 335 335 334 332 330 330 328 327 327 325 323 323 324 324 324 323 321 321 319 318 315 310 306 305 306 308 312 315 317 318 317 316 315 316 316 315 314 314 313 313 312 313 313 313 311 309 311 311 311 310 310 311 311 311 311 311 310 309 309 308 309 310
337 336 337 336 335 334 334 334 333 336 338 336 335 335 335 336 336 336 335 334 335 334 335 335 333 332 331 330 329 327 326 325 323 321 321 321 322 324 324 322 321 319 318 315 308 302 302 301 300 303 307 311 316 317 316 315 316 316 315 315 314 314 313 312 312 313 313 311 310 311 310 310 311 310 310 311 311 311 310 308 308 308 308 308 309
338 336 336 336 334 332 332 335 334 336 338 335 335 336 335 336 336 336 336 335 335 336 336 334 332 331 330 329 328 326 325 323 321 320 319 320 322 323 323 322 320 317 316 315 310 307 307 302 298 300 301 303 308 313 315 316 316 316 315 315 314 314 314 313 312 313 313 311 310 311 311 310 311 310 309 310 310 310 309 308 308 308 308 308 309
338 336 336 335 332 330 333 337 335 337 337 333 335 337 336 336 336 337 337 337 337 336 335 333 330 329 329 328 325 323 322 321 320 319 319 320 320 320 320 319 318 317 316 315 312 310 312 309 304 304 305 305 304 306 308 312 314 315 315 314 313 312 313 314 313 313 312 312 311 310 311 310 310 310 309 309 309 308 308 307 308 308 308 308 309
337 336 336 336 332 332 337 337 335 338 337 333 335 337 336 337 338 338 339 338 337 336 334 331 329 328 327 325 323 321 319 319 318 319 318 318 318 317 317 317 318 317 314 314 313 312 313 313 309 307 309 309 308 306 304 304 307 310 313 314 313 312 312 314 313 313 312 311 311 310 310 310 309 309 308 308 308 307 307 307 308 308 308 308 309
338 336 337 337 335 336 339 337 336 339 337 335 335 337 337 339 339 339 339 338 337 335 332 330 328 327 326 324 322 320 319 318 316 316 316 315 315 315 315 315 314 313 312 312 311 312 312 312 311 309 310 311 310 311 307 303 301 301 304 308 312 312 312 313 313 312 312 311 311 310 310 309 309 308 307 307 307 306 307 307 307 308 308 307 308
338 336 337 339 338 339 339 337 337 338 337 336 337 338 338 340 340 339 338 338 336 334 330 329 328 327 326 324 323 321 320 318 316 314 314 313 314 314 313 313 312 311 312 312 311 311 311 311 311 310 311 311 311 312 309 306 304 303 300 300 306 311 311 312 312 312 311 311 311 310 309 309 308 308 306 306 306 306 307 307 307 307 307 307 308
339 336 338 340 340 340 340 338 338 338 338 337 338 340 340 339 339 338 338 337 335 333 330 329 329 328 327 326 326 325 323 320 317 315 314 314 313 313 313 312 312 312 312 312 311 311 312 311 310 309 309 311 313 313 310 308 308 310 308 300 299 306 309 309 310 311 311 311 310 309 308 308 308 307 305 305 306 306 306 307 307 307 307 307 307
339 338 339 341 341 341 341 340 339 340 339 337 337 340 340 338 338 338 337 335 334 332 330 329 330 329 328 330 329 328 327 324 321 318 316 315 314 314 314 313 313 313 312 312 312 311 312 310 310 309 307 308 312 313 311 310 310 313 312 303 296 300 304 306 307 309 311 311 310 309 308 308 307 307 306 305 305 306 306 307 306 306 306 306 306
339 340 341 342 342 342 342 340 339 340 340 338 336 338 339 338 338 338 338 335 333 332 330 329 331 330 331 332 331 331 331 327 323 321 318 316 316 315 315 315 314 314 313 313 312 312 311 310 310 309 306 307 309 310 310 311 312 313 312 304 297 297 299 302 305 307 310 310 309 309 308 307 307 307 307 306 305 306 307 307 306 306 306 305 306
338 340 342 342 343 342 341 340 341 342 340 339 338 336 337 338 338 338 337 336 334 333 332 330 331 331 331 333 333 334 332 326 325 324 320 317 316 316 316 315 314 313 313 314 312 311 311 310 311 309 307 308 309 308 309 311 312 313 312 305 298 296 297 298 300 303 307 309 309 308 308 307 307 307 307 307 306 305 306 307 306 306 306 305 305
339 340 342 343 344 342 341 342 342 343 341 340 339 337 336 337 338 338 337 336 334 333 332 331 331 331 332 331 332 334 331 327 327 325 322 320 317 315 315 315 314 313 312 314 313 311 311 310 310 309 308 309 308 307 308 309 310 310 309 306 300 297 296 296 296 298 302 306 308 308 307 307 306 306 306 306 306 305 306 307 306 306 305 304 303
340 341 341 343 344 342 342 343 343 343 342 340 340 339 337 337 337 337 336 336 335 333 333 333 332 332 332 331 332 333 330 327 327 324 323 322 319 316 315 314 315 314 313 314 313 311 311 311 310 310 310 309 308 309 308 308 309 309 309 309 305 298 296 296 296 296 298 302 305 307 307 306 306 306 305 305 306 305 305 306 306 306 305 302 300
340 341 341 343 344 342 342 343 342 342 341 341 340 339 338 337 337 337 336 335 334 333 333 333 332 333 332 332 333 333 330 328 327 325 324 323 321 318 316 315 315 315 314 314 314 312 312 311 310 310 310 310 309 308 307 308 309 308 310 312 308 299 296 296 296 296 296 298 301 304 306 305 305 306 304 305 306 305 305 306 306 305 303 300 299
340 341 342 343 344 343 342 342 342 342 341 341 342 340 338 336 336 337 337 336 335 334 334 334 333 332 332 332 332 333 332 330 328 327 326 325 323 319 317 316 315 316 315 314 314 313 312 311 310 310 310 310 309 308 307 308 307 308 312 311 304 297 296 297 296 297 297 297 297 300 304 305 304 305 304 304 305 305 305 305 305 304 300 299 299
341 341 341 343 344 344 342 341 341 341 341 341 341 340 339 337 336 337 337 337 336 335 334 334 334 333 333 333 332 333 333 332 330 329 329 329 326 320 317 316 315 316 316 315 315 314 312 312 311 310 310 309 309 309 308 308 308 310 310 306 300 296 296 297 296 297 297 297 297 298 301 303 303 303 303 303 304 305 305 305 304 301 299 298 299
341 341 342 343 344 343 342 342 341 341 341 340 340 339 339 339 338 338 338 337 336 335 335 334 333 333 333 333 333 333 333 332 331 329 329 329 328 322 318 317 317 318 317 316 316 315 313 313 311 311 310 309 309 308 308 308 308 308 307 304 300 297 296 296 297 297 297 297 297 297 298 300 301 301 301 301 302 304 305 304 301 299 298 299 298
342 342 342 343 344 343 343 342 342 341 340 340 340 340 340 340 339 338 338 338 337 336 335 334 333 333 333 333 333 333 333 332 331 330 329 328 329 326 320 318 319 319 318 317 317 316 314 313 312 311 310 309 309 308 308 307 307 306 306 306 301 296 297 297 297 298 298 298 297 297 297 297 298 297 298 299 299 301 303 301 299 298 298 298 298
343 342 343 343 343 343 343 342 341 341 340 340 341 341 340 340 339 338 338 338 337 337 336 335 335 334 333 333 333 332 332 331 330 331 330 328 329 329 325 321 321 320 318 318 318 316 315 313 312 311 310 309 309 308 308 307 307 307 307 306 300 296 300 302 300 298 297 297 297 297 297 296 296 295 296 298 298 299 301 300 299 298 298 298 298
344 344 344 344 344 343 343 342 341 340 341 341 341 341 341 340 339 338 338 338 338 337 335 335 335 334 334 333 332 332 332 331 331 330 330 330 328 328 329 326 324 322 319 318 317 316 314 313 312 311 310 309 308 307 308 307 307 308 307 305 300 298 303 306 305 301 297 297 297 296 296 296 296 296 296 298 298 299 300 299 298 298 298 298 298
345 345 344 344 344 344 343 342 342 342 341 340 341 342 341 340 339 338 338 338 337 337 336 335 334 334 334 334 332 332 332 332 331 331 330 330 329 328 329 327 326 327 323 320 318 316 314 313 311 311 309 308 308 307 308 307 307 307 306 303 301 302 306 307 307 303 298 296 296 296 297 296 296 296 295 297 298 299 299 299 298 298 298 298 298
345 345 344 344 344 344 343 343 343 343 342 341 341 341 341 340 339 338 338 337 337 337 336 335 334 333 333 334 333 333 333 332 332 332 331 330 329 327 328 326 326 328 327 324 322 317 314 313 311 310 309 308 308 308 308 307 307 305 304 303 302 305 307 307 307 304 299 298 297 296 296 296 296 296 295 297 298 298 298 298 298 298 298 298 298
345 345 344 343 343 343 343 343 343 343 342 341 341 341 341 340 339 338 338 337 337 337 336 336 335 333 333 333 334 334 333 333 332 331 330 329 329 328 327 326 324 325 325 327 325 318 314 313 311 310 308 308 308 308 308 307 305 305 304 302 302 305 307 307 307 305 302 301 300 298 296 296 296 296 295 296 298 298 298 298 299 298 298 298 298
345 344 344 343 343 343 342 342 343 342 342 340 340 340 340 339 338 338 337 336 336 335 336 336 334 334 333 332 333 333 333 332 331 330 329 329 328 327 326 325 324 323 322 324 327 321 314 312 311 310 308 308 308 308 308 307 306 305 304 302 302 304 306 306 306 304 303 303 303 300 297 296 296 295 295 297 298 299 298 298 298 298 298 297 297
345 344 343 343 343 342 342 342 342 341 341 340 340 339 339 338 337 337 336 335 335 335 334 333 333 332 332 331 331 331 331 330 330 329 327 327 326 326 325 325 324 323 321 322 325 321 315 312 311 309 308 308 308 308 308 307 306 305 304 303 303 303 305 305 305 304 303 303 303 302 298 296 296 296 296 298 298 299 298 298 298 298 298 297 297
345 343 343 343 342 342 342 342 342 341 341 340 339 338 337 337 336 336 335 334 334 333 332 331 331 331 331 330 329 329 329 329 328 326 326 326 326 325 325 324 324 324 322 321 322 318 314 312 311 309 308 308 307 307 307 306 306 305 305 304 303 303 304 304 304 304 304 304 303 302 299 297 296 296 297 298 298 298 299 298 298 299 298 297 298
344 344 343 343 342 342 342 341 341 341 340 340 339 338 337 336 336 335 335 334 333 332 331 330 329 329 329 328 328 328 328 328 327 326 325 325 325 325 324 323 323 322 322 321 320 318 315 313 312 310 308 307 307 306 306 306 306 306 305 305 304 304 305 305 304 304 304 304 303 302 300 297 296 297 298 298 298 298 299 298 299 299 298 297 298
344 344 343 342 342 342 341 341 341 340 340 339 338 337 337 336 335 335 334 333 332 331 330 329 328 327 327 326 327 327 327 327 326 324 323 323 322 322 322 321 321 321 321 320 319 318 316 314 313 311 308 308 307 306 306 306 306 306 306 305 304 305 305 305 304 303 304 304 303 302 300 298 297 298 299 300 299 299 299 299 299 299 298 298 298
344 343 343 342 341 341 341 341 340 340 339 338 338 337 336 335 335 334 333 332 331 330 328 327 326 326 325 326 326 326 326 325 323 321 321 320 319 319 319 318 319 319 320 319 318 317 316 315 314 311 310 309 308 306 306 305 305 305 305 304 304 305 305 304 303 303 303 303 302 302 300 299 300 300 301 301 300 300 299 299 299 299 298 297 298
343 343 342 341 341 341 341 340 340 339 338 338 337 336 335 334 334 333 332 331 329 327 325 325 325 324 324 325 324 324 323 322 320 319 318 318 317 317 317 316 317 317 318 318 316 315 316 315 314 311 310 310 308 306 305 305 305 305 305 305 305 305 305 305 304 304 304 303 303 303 302 301 302 302 302 302 301 301 300 299 300 299 297 297 298
342 342 342 341 340 341 340 340 339 338 338 337 337 336 334 334 334 332 331 330 328 325 324 324 324 323 323 323 322 322 321 319 318 318 316 317 317 316 316 316 315 315 316 317 315 313 314 315 313 311 309 309 308 306 305 305 305 304 304 305 306 306 306 305 305 305 305 304 304 305 304 303 303 303 303 303 302 301 300 300 300 298 297 297 297
342 342 341 340 340 340 340 339 339 338 337 337 336 335 334 334 333 332 331 329 326 324 324 323 322 321 321 321 320 320 319 317 317 316 315 317 317 315 315 315 314 315 315 315 314 312 313 314 313 311 309 308 307 307 306 305 305 305 304 304 305 306 307 306 305 305 305 305 305 305 304 304 304 304 304 304 303 302 300 300 300 298 296 297 297
342 341 340 340 339 340 340 339 338 337 336 336 335 335 334 333 332 331 330 327 324 323 323 321 320 319 319 319 319 319 318 316 316 315 315 316 315 314 315 315 314 315 315 314 313 313 313 313 313 311 308 308 307 306 306 306 305 305 305 305 305 306 306 306 306 306 306 305 304 304 303 303 304 304 304 304 304 303 301 301 300 297 297 298 298
342 341 340 340 340 339 339 338 337 336 336 335 335 334 334 333 332 331 329 325 322 322 321 319 319 318 318 317 318 318 316 315 316 315 314 315 314 314 315 314 314 315 315 314 313 313 313 312 312 310 308 308 307 306 306 307 306 306 307 307 306 305 304 305 306 306 305 304 304 303 303 303 304 304 305 304 305 304 302 301 300 299 299 300 300
341 340 340 340 340 339 338 337 336 336 336 335 334 333 333 333 332 330 327 323 322 321 320 319 319 318 317 317 317 316 314 314 315 314 314 315 313 314 315 314 314 315 315 314 313 313 313 311 310 309 309 309 308 306 306 307 307 308 308 306 306 306 305 305 306 306 305 305 304 304 304 303 303 304 305 304 304 304 303 302 302 301 300 300 300
341 340 340 340 340 339 338 337 336 336 335 335 334 333 333 333 331 329 326 323 321 320 320 320 318 316 316 316 315 314 313 314 314 314 314 314 313 314 315 314 314 315 314 312 313 312 310 308 308 309 309 309 308 307 307 307 308 308 307 306 307 306 305 305 306 306 305 305 305 306 304 303 302 304 305 304 304 304 303 303 302 301 300 301 300
342 340 340 340 340 339 338 337 337 336 335 335 334 333 332 332 330 328 325 322 321 321 321 319 317 316 316 315 314 313 312 312 312 312 312 312 312 313 314 313 313 313 312 312 312 310 307 307 308 309 309 308 307 308 307 308 309 308 306 306 306 305 304 304 304 305 306 306 306 305 302 301 302 304 305 304 304 304 303 303 302 301 301 301 300
341 341 340 340 340 339 337 337 336 336 335 334 334 333 332 331 328 326 324 321 320 321 320 318 317 316 315 314 313 311 311 311 310 311 310 310 310 311 312 311 311 312 312 312 311 308 307 308 308 309 309 307 307 308 308 307 308 308 307 307 306 305 304 304 303 304 306 306 305 303 302 302 303 304 304 305 304 303 303 302 302 302 302 301 300
341 341 341 340 340 339 337 336 336 335 335 334 333 333 331 328 326 325 323 321 320 320 319 318 317 316 314 314 313 311 310 310 309 309 309 308 309 309 310 310 310 311 311 310 309 307 306 307 309 309 308 307 307 308 307 307 307 307 306 307 306 306 305 304 304 305 306 305 304 303 303 303 304 303 304 304 304 303 303 302 302 302 302 301 300
342 341 340 340 340 339 337 336 336 335 334 333 333 333 330 327 325 324 322 321 320 320 319 317 317 315 314 314 314 312 310 309 308 307 307 306 306 307 308 308 308 309 309 309 307 305 305 307 308 309 307 307 308 308 307 307 306 304 305 307 307 306 305 304 304 304 304 304 304 304 304 304 303 303 304 304 303 303 303 302 303 303 303 302 301
342 341 340 340 339 338 337 336 335 334 333 333 333 333 330 328 326 323 322 321 320 319 318 317 316 315 313 314 315 313 310 308 307 305 304 303 302 304 305 305 306 306 308 308 305 303 305 307 308 308 307 307 308 308 307 307 305 303 305 306 305 304 304 304 304 305 304 305 305 305 305 305 304 303 304 304 303 303 303 302 303 303 303 302 301
342 341 340 340 339 338 337 336 335 334 333 332 332 331 330 329 326 323 321 320 319 318 318 316 315 315 313 313 314 313 310 307 306 305 304 302 300 301 302 303 304 305 305 305 303 300 303 307 306 306 307 307 307 307 307 306 303 301 302 304 304 303 304 306 306 307 307 307 306 306 305 305 304 303 303 303 303 303 303 303 303 303 303 303 302
341 340 339 339 338 337 336 335 334 333 332 332 331 330 329 328 326 322 320 320 319 318 317 316 315 314 314 313 314 313 310 308 306 306 307 305 302 302 304 305 306 306 305 303 300 298 301 305 305 304 305 306 306 307 306 304 301 298 298 302 304 305 305 306 306 307 307 307 306 306 306 305 304 303 303 303 303 303 303 303 302 302 303 303 302
341 339 339 338 337 336 336 335 334 332 331 331 330 329 328 327 325 322 320 320 319 317 317 316 315 315 314 314 314 313 311 310 307 306 308 308 306 306 307 308 306 305 305 304 302 300 300 302 303 303 303 304 305 305 304 302 300 297 297 299 302 303 304 304 305 305 306 307 307 306 306 305 304 303 303 303 303 303 303 303 302 302 303 303 302
Wind_Speed
17 17 18 18 18 17 16 17 17 16 15 15 16 15 13 15 16 15 12 11 8 8 8 14 18 17 14 14 17 18 17 17 16 15 13 11 12 12 13 14 14 14 13 13 12 12 12 12 12 12 12 12 12 12 13 13 13 13 13 13 13 14 14 15 16 16 16 16 17 17 17 17 17 18 19 19 20 20 20 21 21 22 22 22 22
16 17 18 18 19 18 17 20 18 18 18 16 16 16 13 14 15 14 12 10 7 8 9 13 16 17 15 14 14 16 19 18 15 14 12 11 13 13 13 13 13 13 13 12 11 11 11 11 11 12 11 11 12 12 12 12 12 13 14 13 13 13 13 15 15 16 15 15 16 17 17 17 17 18 19 19 20 20 20 21 22 22 22 22 22
16 17 17 17 17 16 17 19 17 17 18 16 15 15 14 14 13 13 12 9 9 9 10 12 15 17 16 15 12 13 18 16 13 14 13 13 13 14 13 13 12 12 12 11 11 11 11 11 11 11 11 11 10 11 11 11 11 12 13 13 13 13 13 14 14 15 15 15 16 16 16 17 17 17 18 19 20 20 21 21 22 22 23 22 22
17 17 15 16 16 14 15 15 15 16 16 15 13 15 15 13 12 13 10 8 9 8 9 12 15 17 17 15 13 14 17 14 13 14 14 14 14 13 13 13 12 11 11 11 11 10 10 10 10 10 10 10 10 10 10 9 9 10 12 11 12 12 12 13 13 14 14 15 15 15 15 16 17 17 18 19 20 21 21 21 22 22 23 22 22
18 18 15 17 16 14 15 14 15 15 13 14 13 15 15 13 12 11 8 8 8 9 9 12 14 14 15 16 15 15 15 15 14 15 15 16 14 12 12 12 12 12 12 12 11 11 10 10 10 10 9 9 9 8 8 8 8 8 9 9 10 11 11 12 12 12 13 14 15 14 15 15 17 17 18 19 20 20 21 21 22 23 23 23 23
16 18 16 17 17 16 17 14 15 14 13 15 13 15 15 13 12 9 9 8 8 10 9 12 14 13 14 14 15 15 15 16 14 15 17 16 14 11 12 12 11 11 12 11 11 10 10 10 9 9 8 8 7 7 7 7 7 7 8 8 9 9 10 10 11 11 11 13 14 14 15 15 16 17 18 19 19 20 21 21 22 23 23 23 23
16 18 17 17 18 18 18 15 15 14 13 16 14 14 14 12 12 9 9 9 8 10 10 13 14 13 14 13 13 13 15 16 13 14 14 13 12 11 12 13 10 9 9 9 8 7 7 8 8 9 9 8 7 6 6 7 6 6 7 8 8 8 9 9 9 9 10 12 13 13 14 15 16 16 17 18 19 20 21 21 22 23 22 22 23
17 19 18 17 18 19 18 15 17 15 13 17 15 13 13 12 11 10 11 10 10 9 10 14 13 12 13 13 13 11 12 12 11 11 10 10 11 11 12 12 11 11 9 7 5 5 5 4 6 7 9 9 8 6 6 6 6 6 6 7 7 7 7 8 8 8 8 11 12 13 14 14 15 16 16 17 18 19 20 21 22 22 22 22 23
17 20 20 17 18 18 18 17 19 16 14 18 15 13 13 13 12 11 11 11 10 10 12 14 13 12 11 10 10 12 12 11 9 10 9 10 11 11 12 12 13 13 10 5 6 8 7 5 5 5 6 7 8 7 6 5 5 5 5 5 5 6 7 7 7 7 7 10 11 12 13 14 14 15 16 17 18 18 19 20 21 22 22 22 23
18 21 20 17 17 19 18 18 19 16 16 18 14 13 15 14 13 12 10 10 11 13 15 14 12 12 12 9 9 11 12 11 10 10 9 10 11 11 11 11 11 10 9 6 5 8 8 8 9 8 6 4 5 6 6 6 5 4 4 3 4 5 6 6 7 7 7 8 10 11 12 13 13 15 15 16 17 18 18 19 20 21 22 22 23
20 21 20 18 18 19 19 19 19 17 18 19 14 13 15 13 13 13 10 9 11 15 16 15 13 11 11 9 8 9 9 9 9 9 9 10 11 10 10 10 10 10 10 7 4 4 5 6 7 8 8 7 5 4 4 5 4 4 4 4 3 4 5 6 6 6 6 7 9 10 11 12 13 14 15 15 16 17 17 19 20 21 21 21 22
21 22 21 19 18 19 19 19 19 17 19 18 14 14 16 13 14 15 12 10 12 15 15 15 15 12 9 8 7 7 8 7 7 9 10 10 10 10 11 11 11 12 10 7 4 3 2 1 5 6 4 4 5 5 3 3 2 2 3 4 4 4 4 6 6 5 6 7 8 9 10 11 12 13 14 15 16 16 17 19 20 20 21 21 22
22 22 22 19 19 20 19 20 19 18 19 17 14 15 17 15 15 16 14 12 14 15 16 16 15 12 10 8 7 7 7 7 7 9 10 10 10 10 12 11 11 11 9 8 7 6 4 2 6 9 2 1 1 3 3 4 4 1 0 2 4 5 5 5 6 6 6 7 8 9 10 11 12 13 14 15 15 16 17 18 19 20 20 21 21
22 23 23 18 18 21 20 20 19 19 18 15 14 16 18 17 17 17 15 13 15 16 17 16 14 12 10 7 6 5 5 5 6 8 8 9 10 10 12 11 10 11 9 9 8 8 7 5 7 8 2 3 4 2 2 3 5 4 3 1 2 5 5 5 6 6 6 7 8 8 9 10 11 12 13 14 14 15 16 17 18 19 20 20 21
23 23 23 19 19 21 21 21 20 19 19 17 16 17 18 18 17 18 16 13 14 17 18 15 13 14 11 6 4 4 3 4 6 8 8 8 9 11 11 10 10 10 9 10 8 8 8 7 8 7 3 4 6 4 3 3 3 4 4 3 1 3 5 6 6 7 7 7 7 8 9 10 10 11 12 13 14 14 15 16 17 18 19 20 21
24 22 23 21 21 22 22 23 21 19 20 20 20 17 19 20 19 18 18 16 14 16 17 14 15 16 10 3 5 4 2 5 9 9 9 9 9 10 10 11 11 10 9 9 9 9 9 7 7 7 7 6 6 6 7 5 1 4 3 4 2 2 4 6 6 7 7 7 7 8 9 9 10 10 12 13 13 14 14 15 17 18 19 20 21
24 22 23 23 23 24 23 23 22 20 20 22 21 18 19 21 20 19 19 18 16 16 16 15 16 18 12 4 4 3 2 8 11 8 9 10 9 10 10 10 11 10 10 9 9 10 9 8 8 6 6 6 5 5 6 3 2 4 1 4 4 0 3 5 6 7 7 7 7 8 8 9 10 10 11 12 13 13 13 15 16 18 19 20 21
24 23 23 23 24 24 22 21 21 21 19 19 20 20 20 21 22 21 21 19 18 16 16 18 20 20 18 9 4 4 2 12 9 3 8 10 9 11 10 11 11 11 10 9 9 10 9 10 9 6 5 6 5 5 4 2 2 3 1 3 5 1 2 3 4 5 7 7 7 7 8 8 9 10 10 11 12 12 13 14 16 18 19 20 21
24 23 24 24 23 23 21 19 20 21 20 19 20 20 20 21 22 23 23 21 20 19 18 20 21 20 21 17 11 8 6 14 8 3 5 6 9 12 11 11 11 11 11 10 10 11 11 10 7 7 6 6 6 5 6 7 5 3 3 3 4 3 1 2 3 4 5 6 7 7 7 8 9 10 10 10 11 12 13 15 16 18 19 20 22
25 24 24 25 23 23 22 20 20 20 20 21 21 20 19 20 21 23 25 24 22 21 19 20 20 18 18 18 14 9 10 14 12 11 6 2 7 10 11 13 13 12 12 11 11 12 13 10 7 8 8 5 5 4 6 9 7 5 5 4 4 4 2 2 2 3 4 5 6 6 7 8 9 9 9 10 10 11 13 15 16 18 19 21 22
26 24 24 24 23 23 23 22 21 20 20 21 21 21 20 20 21 22 25 25 22 20 20 21 22 18 16 17 15 11 10 11 11 12 8 5 5 5 10 13 12 14 15 12 11 12 14 11 8 10 9 7 6 5 5 6 7 7 7 6 5 5 3 2 2 2 3 5 5 6 7 8 8 9 9 9 10 11 13 15 16 17 19 21 23
26 25 24 24 24 24 23 22 22 20 20 20 21 23 22 21 22 23 25 26 23 21 20 22 23 20 16 16 16 13 10 7 8 10 8 9 7 6 13 15 11 14 16 14 12 11 12 11 8 9 9 8 8 8 7 6 8 9 7 6 6 5 3 2 1 1 3 5 6 6 7 8 8 9 9 9 9 11 13 15 16 18 20 22 23
27 26 26 25 24 24 23 23 22 21 20 20 20 22 23 22 22 24 26 25 25 25 21 21 22 18 15 16 16 15 11 8 10 12 10 7 6 7 13 16 14 15 17 16 13 11 11 11 10 10 10 9 8 9 9 9 11 10 8 6 6 5 4 2 1 1 2 4 6 6 7 8 8 8 9 9 9 10 13 14 16 18 20 22 24
27 27 26 26 25 24 23 23 22 22 21 20 19 19 20 21 22 22 23 24 25 25 22 21 21 19 16 15 15 15 15 13 11 12 12 9 4 8 13 15 13 14 19 18 14 12 12 12 12 11 11 9 9 10 9 9 11 11 10 8 6 4 3 2 1 2 3 4 5 6 7 7 7 8 8 8 8 10 12 14 17 19 21 22 24
28 28 28 28 27 26 25 23 24 23 22 21 19 19 19 21 22 21 21 22 22 22 22 21 22 20 16 14 15 16 17 17 12 10 11 11 8 8 14 18 12 11 19 19 14 13 13 13 13 12 13 11 10 12 10 9 11 11 11 9 6 3 0 2 2 3 4 4 5 5 6 6 7 7 7 7 8 10 12 15 17 20 21 23 25
30 30 30 29 27 27 26 25 24 24 22 21 19 19 20 20 22 22 21 22 21 20 20 20 19 19 14 11 14 16 16 16 13 11 12 12 11 8 9 15 12 11 18 17 15 13 13 15 14 13 14 13 11 11 10 9 10 10 10 8 7 4 1 3 4 4 4 4 4 5 5 5 6 6 6 7 8 10 12 15 18 20 22 24 25
31 30 30 30 28 27 26 25 24 23 23 22 20 19 19 19 21 22 21 22 21 20 19 18 17 17 16 13 13 15 16 14 13 14 15 13 13 11 5 7 6 6 11 14 14 14 14 15 15 14 14 14 13 12 9 10 10 9 9 8 8 5 2 3 4 5 6 4 3 4 4 5 6 6 6 7 7 10 12 15 18 20 22 24 25
30 30 29 30 28 26 26 26 24 23 23 23 21 20 19 20 21 22 22 21 21 21 20 18 16 15 17 17 15 16 16 15 14 16 16 14 14 14 10 7 6 3 5 8 9 11 15 16 15 14 14 15 14 12 10 11 11 9 8 8 7 5 4 5 4 5 7 5 2 3 3 4 5 6 6 7 7 9 12 15 18 20 22 24 25
28 29 29 30 29 27 26 26 24 23 22 23 22 21 21 20 20 21 22 20 18 19 18 16 15 14 16 18 18 18 16 15 15 16 15 14 14 15 14 13 11 6 4 4 6 9 15 18 17 15 15 15 15 13 11 11 11 11 8 6 6 5 5 6 5 5 7 5 3 3 3 4 5 6 7 7 7 9 12 15 18 20 22 24 24
28 29 29 30 29 27 27 26 25 23 23 23 22 22 22 21 20 20 20 19 17 15 15 15 15 14 15 17 17 17 16 16 16 16 15 15 16 16 16 14 11 8 6 3 6 12 17 18 16 16 18 16 15 14 11 10 10 10 7 5 7 8 8 7 6 6 8 6 4 4 4 4 5 6 6 7 7 9 11 14 16 19 21 23 24
28 29 30 30 29 28 27 25 24 24 23 23 22 22 22 22 21 20 19 19 18 15 15 16 14 13 13 15 16 16 16 16 17 17 17 15 15 16 14 12 8 10 9 3 2 10 16 18 14 14 18 15 13 14 12 11 10 9 8 5 5 7 7 7 7 9 10 8 5 4 4 5 6 6 6 6 7 8 11 13 15 18 20 21 24
28 29 30 29 29 29 27 25 24 24 23 22 23 22 21 22 22 20 18 18 18 16 15 14 13 13 14 15 15 16 16 16 15 16 17 14 12 11 11 10 8 9 12 7 1 4 10 17 14 11 15 15 12 13 12 11 10 9 7 5 5 7 8 9 9 9 10 10 7 5 5 5 5 6 6 6 7 8 10 12 14 16 18 21 23
27 28 29 28 29 29 27 25 24 24 23 23 23 23 21 21 20 19 18 17 17 16 14 14 14 15 15 15 16 17 17 16 13 12 14 13 12 11 11 12 11 11 12 11 6 6 8 14 14 11 15 17 12 11 12 12 11 10 7 5 6 7 7 9 10 10 10 10 7 5 5 5 5 6 6 6 7 7 9 10 12 14 17 21 23
27 27 28 28 28 28 27 25 25 24 24 23 23 23 22 21 20 19 18 19 18 17 16 17 17 16 16 16 17 18 17 16 15 12 12 13 13 14 16 15 13 14 14 13 10 10 11 12 13 11 13 15 12 9 10 11 10 8 5 5 7 8 7 8 10 9 7 8 7 5 6 6 6 6 6 6 6 6 7 9 10 12 17 20 21
28 27 28 28 28 28 26 26 25 25 25 24 24 24 23 22 21 20 19 19 20 19 17 17 16 16 17 18 18 18 17 17 16 14 13 14 15 16 17 17 14 14 16 15 12 12 16 14 12 12 12 11 10 9 10 11 9 7 5 5 6 7 6 7 8 7 6 7 6 5 6 6 5 5 5 5 5 5 6 8 9 11 16 19 20
28 28 27 27 28 27 27 26 26 26 26 25 25 25 23 22 22 21 19 18 19 19 17 17 17 17 19 19 18 19 19 17 17 16 15 15 16 17 16 17 15 12 14 17 13 11 17 18 14 12 13 12 9 8 9 11 12 10 7 6 7 7 7 8 8 8 8 7 5 6 6 4 4 5 6 7 5 4 5 7 7 10 15 18 19
29 29 28 27 28 28 27 28 27 27 27 26 25 24 23 23 22 22 20 18 18 19 18 18 19 19 19 19 18 18 20 18 17 18 17 14 16 16 15 16 16 12 12 16 15 10 13 19 17 12 13 14 10 7 7 8 11 11 9 9 10 9 9 8 8 9 8 6 6 7 6 5 6 6 8 9 8 5 6 5 5 8 14 18 18
30 30 29 28 28 28 28 28 28 27 27 27 26 25 24 23 23 22 21 20 19 19 19 19 19 19 20 20 18 18 20 19 18 19 17 15 15 15 13 13 15 14 13 14 14 11 9 15 17 13 12 13 11 8 7 7 8 9 7 8 11 12 10 8 9 10 11 10 9 8 8 9 9 9 9 11 11 8 6 4 3 7 14 18 18
31 31 30 29 29 29 29 29 28 28 28 27 26 26 25 24 24 22 21 22 20 19 20 20 19 19 19 20 19 18 19 20 19 20 18 16 17 15 14 14 13 14 16 14 13 12 10 11 14 14 12 10 10 9 7 8 9 8 6 6 8 10 12 12 10 9 11 11 9 8 10 12 12 11 9 11 12 11 7 5 2 6 14 17 18
32 32 30 29 29 30 30 29 28 28 28 27 26 27 26 25 25 24 21 21 20 19 20 20 19 19 19 19 19 19 19 18 18 19 18 18 19 15 15 16 12 14 18 16 14 13 13 11 12 14 13 10 12 10 7 8 8 6 8 7 4 4 7 10 10 10 10 9 8 9 10 12 13 13 11 12 15 14 11 7 2 5 12 15 16
33 31 30 29 29 30 29 29 29 28 29 29 28 27 26 25 25 25 23 22 21 20 20 20 19 19 18 18 18 18 18 18 19 20 18 19 20 16 16 18 14 15 18 17 15 15 15 13 11 13 13 11 14 13 9 9 7 4 6 6 3 4 6 7 8 10 12 11 9 9 9 9 12 14 13 13 15 13 12 9 3 3 7 11 14
33 32 31 30 30 31 30 29 29 28 29 31 30 29 28 26 26 26 23 22 21 20 21 20 20 19 18 18 19 19 20 19 20 21 20 20 20 16 17 19 15 16 18 17 17 16 16 14 12 12 13 13 15 16 14 12 9 6 6 4 3 4 6 6 8 9 12 10 7 6 8 8 10 12 11 11 12 9 13 12 7 3 4 9 11
34 34 32 31 31 31 30 29 29 29 29 31 31 30 29 28 28 27 24 23 22 22 22 21 21 21 19 19 20 20 21 21 21 22 21 20 20 17 18 20 16 16 18 17 17 16 15 14 12 12 15 14 15 16 15 14 12 9 6 4 4 4 4 5 6 5 9 8 4 6 9 9 9 11 11 11 11 8 14 15 11 6 5 9 10
34 34 33 31 31 32 31 30 31 30 30 31 30 29 29 28 29 28 24 23 24 23 23 22 22 22 20 20 22 21 22 23 22 22 22 21 20 18 19 20 18 17 18 18 19 18 15 15 13 13 15 14 13 14 15 14 11 10 8 6 6 5 4 5 6 3 7 6 4 6 11 10 8 11 14 12 7 5 9 11 9 6 9 10 8
33 33 33 32 32 33 33 32 31 30 30 32 30 29 29 29 30 29 24 24 25 24 23 23 23 24 22 21 23 23 22 23 23 23 23 22 20 18 18 19 19 18 17 17 19 18 17 16 12 10 13 13 12 14 15 14 11 10 9 8 9 8 6 5 7 5 5 5 5 7 10 10 7 10 14 12 7 5 4 4 7 11 12 10 7
33 33 33 33 32 33 33 31 30 30 32 34 32 31 31 29 28 27 23 23 25 24 24 24 23 25 24 22 24 24 22 23 24 24 24 23 21 19 18 19 19 18 17 17 18 17 17 17 9 4 8 12 12 14 16 15 13 11 8 6 7 8 7 6 9 10 10 9 8 8 9 8 7 9 10 7 5 6 4 6 10 12 10 9 7
34 32 32 33 32 32 32 30 30 31 33 34 34 34 34 31 28 25 21 22 25 23 24 25 24 26 26 23 23 24 24 24 25 25 25 24 23 21 19 19 19 18 17 17 17 16 17 15 9 5 8 10 12 15 16 15 14 11 10 8 7 7 7 8 10 13 15 14 11 11 10 7 6 7 9 8 6 6 6 9 13 12 10 11 8
33 31 31 33 32 32 32 31 30 31 33 33 33 36 37 33 30 27 22 22 25 23 23 25 24 25 26 23 22 23 24 25 24 24 24 24 24 23 21 19 17 17 18 17 17 17 17 15 11 8 9 10 11 13 14 14 13 12 12 10 7 7 7 8 11 14 17 17 16 16 14 9 6 5 8 9 9 9 10 13 13 10 11 12 8
32 31 32 32 32 32 32 32 31 32 33 34 33 37 39 36 34 32 25 22 24 23 23 24 24 23 25 24 22 22 24 25 24 23 22 22 24 23 20 19 17 15 16 17 18 19 18 15 12 11 11 11 11 12 13 12 11 10 11 9 7 7 7 8 12 15 15 15 18 19 17 12 6 3 5 6 9 11 12 11 7 6 8 10 8
31 32 32 31 30 30 32 33 33 31 33 35 36 38 40 38 37 36 27 22 23 24 22 24 23 22 24 24 23 22 23 25 25 24 22 21 23 22 20 19 18 16 15 17 20 20 19 17 14 13 14 13 13 13 12 11 10 9 10 10 8 8 8 9 13 13 9 7 16 18 15 10 3 3 4 7 10 11 9 8 9 10 11 11 9
30 31 32 31 29 30 31 32 32 32 32 35 38 40 41 38 38 37 29 22 23 24 23 23 23 22 22 24 23 22 22 24 25 27 25 22 21 21 21 20 19 19 18 19 20 20 20 20 19 17 16 15 15 15 13 13 13 12 12 12 11 10 9 9 11 11 8 4 14 14 8 4 2 3 4 5 7 8 9 10 11 12 14 14 9
Wind_Direction
176 186 196 197 198 194 194 200 196 199 203 188 186 202 209 198 204 215 221 228 195 153 141 116 118 121 127 146 137 127 124 120 121 121 118 118 112 102 97 97 100 102 101 98 96 95 94 94 92 89 88 86 84 82 80 78 73 66 65 69 67 63 59 54 51 50 49 48 44 41 41 40 39 38 37 35 33 31 29 27 25 23 22 20 19
186 191 199 199 196 192 195 198 194 199 200 189 192 200 206 210 210 211 215 213 174 148 140 121 124 123 124 150 143 128 128 126 130 128 123 124 118 113 109 111 116 115 112 106 101 100 97 96 95 93 90 87 87 85 83 79 75 69 69 72 67 63 58 52 50 48 49 47 41 40 41 39 39 39 37 34 31 30 28 25 23 22 20 18 17
184 191 200 200 197 190 195 198 191 198 197 190 200 198 204 217 205 204 214 196 163 153 142 127 126 126 130 143 138 134 136 133 137 137 133 132 127 127 129 132 133 126 119 109 106 105 101 98 95 95 92 89 90 87 85 80 76 71 69 69 64 62 56 51 50 48 49 44 38 40 42 40 39 38 36 33 30 29 27 24 23 21 19 18 17
182 190 198 197 200 192 194 198 190 200 195 188 203 197 200 211 196 203 209 166 151 149 138 130 127 132 141 142 135 135 138 140 148 146 140 138 134 133 135 136 130 122 116 111 111 108 104 101 96 96 93 92 92 88 86 81 79 72 66 65 63 61 55 50 49 48 46 40 38 42 42 40 37 36 35 32 29 27 25 23 21 20 19 18 17
184 190 195 193 200 197 194 197 196 205 195 189 201 192 195 203 193 197 182 147 144 140 134 133 132 139 145 144 144 143 144 144 151 155 147 141 138 133 133 136 130 129 129 123 119 113 109 104 98 97 94 93 93 90 87 82 81 70 61 66 65 60 52 49 49 46 42 39 40 43 42 38 35 33 33 30 27 25 23 21 20 19 18 18 17
184 188 193 192 197 197 195 198 198 201 192 192 192 181 192 197 185 177 159 153 148 147 148 138 135 141 143 144 148 148 148 143 141 148 147 145 143 138 143 144 140 144 148 141 132 123 115 111 105 99 93 93 94 93 90 85 84 70 64 71 67 60 53 48 46 44 43 40 40 43 39 35 33 30 29 27 26 24 21 20 19 18 18 18 17
192 191 192 191 193 194 195 195 191 192 188 184 179 179 190 185 174 167 161 163 156 157 155 140 137 141 137 136 143 142 144 143 133 131 141 151 147 146 157 155 147 147 152 155 154 146 131 124 123 115 103 94 92 97 95 88 84 72 71 73 67 62 54 48 43 40 42 38 38 41 35 31 30 27 26 25 24 22 20 19 19 19 19 19 18
196 193 192 191 190 190 192 191 187 185 178 173 177 186 185 174 173 175 173 169 162 161 149 137 136 139 133 129 139 138 132 138 136 129 141 155 145 144 157 160 156 148 148 152 142 142 141 133 138 138 128 112 98 97 99 96 87 78 75 69 63 58 51 47 42 38 37 34 35 37 32 28 27 25 24 23 22 21 20 20 20 20 21 20 18
195 192 192 190 188 187 189 190 183 177 173 173 180 185 177 171 175 178 176 172 165 154 142 137 133 133 129 122 138 142 131 136 146 143 147 153 144 142 150 153 150 148 158 156 108 107 111 110 118 128 142 138 121 108 100 98 89 82 79 70 60 53 46 40 37 39 39 32 32 33 28 26 25 22 22 21 21 21 20 21 21 21 21 19 17
192 189 190 190 188 187 189 186 175 173 176 176 179 179 174 173 174 176 177 174 166 150 144 143 136 136 136 127 133 141 139 141 147 147 147 150 150 153 155 150 147 154 171 169 120 101 95 104 112 100 93 104 125 133 124 112 98 85 75 65 59 50 42 34 34 42 40 32 30 27 24 23 23 21 21 21 21 22 22 22 21 20 18 17 16
189 187 190 188 186 186 186 179 171 173 176 176 180 175 172 174 173 174 172 167 159 148 146 142 129 133 143 138 131 131 138 142 146 150 151 153 156 163 161 151 151 157 162 164 150 109 93 108 123 110 87 68 72 109 143 142 126 107 83 64 53 48 42 35 36 43 36 26 23 23 21 21 21 21 22 23 23 23 23 21 19 18 16 15 13
187 187 189 187 185 184 181 173 171 172 170 176 183 172 169 173 175 173 162 155 154 149 154 146 122 117 132 141 143 140 148 150 148 152 154 155 156 158 156 157 160 154 150 156 160 161 136 140 173 160 106 64 66 63 83 129 153 165 109 78 58 49 47 40 38 39 31 21 18 20 21 21 22 22 23 25 24 23 22 20 18 16 14 13 11
187 187 189 189 184 181 178 172 172 170 167 176 182 174 173 173 175 175 161 153 154 150 159 152 127 122 129 133 141 144 149 143 140 151 156 157 159 161 159 164 169 158 154 160 161 169 178 209 197 189 192 333 127 77 69 76 65 2 195 102 78 58 48 43 39 33 28 23 19 21 22 23 24 24 25 27 25 23 21 18 17 14 12 10 9
188 187 190 192 181 176 176 172 172 170 169 179 183 177 177 177 181 180 164 159 160 156 162 155 137 145 149 134 132 136 143 143 144 156 162 165 167 167 166 165 164 163 164 165 168 170 170 178 185 185 215 270 215 165 124 76 59 39 23 53 105 76 54 46 43 33 30 26 23 24 24 25 26 25 26 27 24 21 20 17 14 12 10 8 7
189 188 191 194 183 177 176 173 172 170 170 183 190 179 177 184 188 184 172 165 164 164 169 164 153 160 161 158 161 148 153 172 174 174 174 177 174 169 172 172 163 168 171 169 175 172 172 182 183 184 181 208 218 202 170 137 64 23 23 36 80 104 69 53 47 36 32 31 30 29 26 26 27 25 24 25 22 19 18 15 12 10 7 6 5
189 189 191 192 187 180 177 176 174 169 172 186 196 186 179 186 190 188 181 169 167 174 179 176 168 169 172 185 174 171 210 184 180 189 185 179 179 176 177 176 172 177 180 182 185 174 177 186 186 196 191 181 193 192 183 168 48 341 13 48 32 145 94 63 53 41 34 34 34 32 29 25 25 24 20 19 18 15 14 12 10 7 5 4 2
189 190 191 191 189 184 181 181 177 174 178 186 195 193 183 183 186 191 191 177 171 177 184 191 190 185 187 185 159 198 237 160 162 183 189 185 186 185 184 182 183 183 185 194 188 175 179 179 179 196 192 175 168 178 189 188 284 293 2 51 22 200 131 77 61 48 37 34 35 32 29 25 22 21 15 12 12 11 10 8 6 5 3 1 0
191 191 192 191 190 189 187 185 181 179 178 178 187 198 196 187 182 189 195 184 175 179 190 204 210 206 208 221 240 279 169 150 151 163 183 192 194 191 193 191 191 188 188 195 188 184 184 177 188 205 178 166 179 193 199 195 229 243 266 13 2 333 161 101 81 62 43 34 34 32 28 24 20 18 12 8 9 7 5 5 2 1 0 359 360
192 191 193 192 189 191 189 185 184 180 174 170 177 194 202 196 188 189 191 185 182 187 196 206 212 217 222 231 255 280 187 161 157 136 162 196 199 199 203 197 196 194 195 201 199 194 188 187 207 208 183 178 185 198 208 203 206 236 274 307 341 335 211 128 100 84 56 38 32 30 25 23 19 14 9 7 7 4 3 2 360 359 358 359 1
192 191 192 192 190 191 188 183 185 181 176 175 175 183 193 196 196 193 188 187 188 191 195 198 201 213 224 228 241 253 204 182 172 160 152 173 192 201 208 203 200 198 200 208 206 199 191 191 206 200 197 199 186 192 212 212 221 257 263 254 315 329 257 172 110 98 68 47 33 27 23 20 16 10 6 5 5 3 1 0 358 356 357 359 1
193 192 192 193 191 191 189 186 185 182 180 180 177 179 184 189 197 200 193 192 193 194 196 195 197 208 216 217 223 225 210 201 186 174 164 154 170 193 197 198 202 202 205 209 211 209 197 192 201 203 201 196 195 201 203 216 238 256 251 245 295 319 265 210 122 92 63 51 36 25 19 15 11 6 2 2 1 0 359 358 356 354 356 359 1
192 193 193 192 191 190 189 189 186 184 183 184 182 180 180 185 195 200 195 193 197 198 198 196 199 206 210 208 209 212 215 212 208 208 198 179 170 175 183 186 192 200 206 208 208 208 199 193 197 200 200 204 215 213 202 215 235 242 244 256 297 310 264 225 136 75 44 39 33 26 16 8 5 1 358 357 355 356 356 355 352 352 355 357 358
190 192 193 191 192 190 190 190 189 188 186 188 192 190 186 186 191 193 190 191 195 198 200 199 200 203 207 206 205 211 217 214 216 218 222 214 169 162 183 186 188 195 201 203 202 201 200 199 200 202 208 215 217 206 199 207 222 234 246 267 302 304 264 234 166 48 24 20 22 22 11 1 358 354 352 350 351 354 352 350 349 350 354 355 355
189 190 190 191 192 190 191 192 191 192 191 191 197 200 196 189 188 189 189 192 195 200 204 202 201 203 204 202 203 213 217 218 226 218 222 243 208 167 177 181 193 197 191 192 193 199 206 203 202 208 212 215 211 200 194 206 225 239 248 267 300 295 269 268 277 348 1 4 11 12 6 357 351 349 344 340 348 355 351 347 348 350 352 352 353
189 191 190 191 192 190 191 192 192 194 194 194 195 198 200 195 191 189 189 195 200 205 210 207 205 206 208 208 207 219 221 217 231 235 225 239 238 200 174 177 194 180 171 182 186 193 212 209 204 210 208 205 210 209 208 223 239 244 244 263 296 283 304 14 342 331 328 337 355 357 358 357 351 346 336 330 345 358 353 347 348 349 349 351 352
189 191 191 191 192 192 191 192 195 196 193 193 194 196 201 200 197 192 189 195 201 205 211 212 209 201 201 209 211 223 229 219 225 239 233 233 238 233 175 176 195 160 153 175 181 185 209 209 204 212 206 200 205 206 207 227 239 238 242 270 293 261 133 23 359 349 327 319 340 343 346 350 347 342 328 320 338 354 353 346 346 348 349 350 352
189 190 190 190 192 192 192 191 193 196 195 193 193 196 201 200 196 193 191 195 197 196 199 204 205 201 200 203 207 218 224 215 218 233 237 233 228 234 208 167 191 161 150 171 180 189 201 198 202 211 202 194 198 199 203 225 234 230 242 280 292 255 237 320 331 354 340 315 318 335 341 343 339 332 318 314 331 345 346 344 346 348 349 350 351
190 190 189 190 191 190 191 191 191 194 196 195 194 194 198 198 194 193 194 199 201 198 197 196 195 199 206 208 208 216 217 210 216 227 232 230 223 232 237 202 188 174 153 169 183 195 195 189 194 203 199 190 191 200 211 222 232 235 247 281 290 259 252 272 287 346 347 330 321 326 329 334 330 322 311 307 321 335 339 343 347 348 348 350 350
189 189 189 190 191 190 189 191 192 194 195 195 194 194 196 196 194 196 197 199 203 205 204 200 196 198 207 210 211 216 217 213 217 221 223 225 220 222 232 232 220 195 161 171 189 197 193 187 186 191 196 193 189 198 213 223 237 243 251 283 290 269 260 251 259 327 344 348 4 344 321 321 318 313 307 299 309 328 336 343 347 348 348 349 351
189 188 189 189 190 190 189 191 193 195 195 194 194 193 195 193 191 197 200 197 199 207 206 201 201 204 204 205 210 217 218 214 218 220 218 221 219 214 223 238 234 197 172 169 195 200 192 182 184 189 189 189 190 195 208 221 229 235 245 277 279 267 260 241 249 299 310 314 345 352 329 318 311 306 298 293 305 323 335 343 347 348 348 349 352
190 188 188 188 188 188 189 191 194 196 196 194 193 193 195 192 190 194 199 197 196 201 204 201 200 201 200 200 207 214 214 214 220 218 212 214 216 216 225 239 232 195 193 223 218 200 188 174 175 185 182 180 186 190 200 213 220 231 241 255 259 257 260 254 265 291 290 283 300 336 340 324 310 303 294 293 305 319 333 343 347 349 350 351 354
189 188 187 186 187 188 188 190 194 196 195 194 193 191 192 192 193 197 198 197 195 195 198 200 200 201 201 201 205 209 211 216 220 209 203 209 212 212 222 232 227 199 203 229 232 143 169 169 166 170 173 174 183 187 193 207 217 225 235 259 265 256 263 268 273 284 279 271 278 311 334 328 308 299 292 297 309 318 332 341 347 351 353 353 355
188 187 186 186 188 188 188 190 193 194 194 194 193 191 191 191 193 197 197 195 195 196 202 205 206 207 204 202 206 209 212 217 219 206 200 207 213 213 216 223 225 208 204 221 205 125 130 163 168 167 166 168 180 193 195 202 209 211 218 252 259 252 264 271 270 272 268 263 268 295 326 327 305 293 292 301 310 318 330 338 343 351 356 357 356
189 188 187 187 188 188 187 188 190 192 193 194 192 191 191 190 191 192 192 192 194 202 210 207 208 216 214 210 210 209 210 211 211 209 205 206 211 215 218 222 223 210 202 210 200 153 137 156 167 168 166 169 182 198 202 203 203 206 220 243 240 235 245 259 267 271 255 244 255 289 324 324 302 289 299 311 312 314 324 332 341 351 359 360 357
189 190 190 188 187 187 187 187 188 189 191 193 193 193 192 190 190 190 190 192 198 207 211 206 209 216 212 209 208 204 203 202 200 202 203 205 210 210 214 220 221 209 198 201 197 162 153 163 171 173 177 186 196 201 207 206 194 191 212 239 236 221 217 242 268 276 252 232 250 297 324 321 301 289 304 314 311 313 316 322 336 354 3 4 360
188 189 190 188 187 187 187 187 188 188 190 192 194 194 194 192 192 191 189 191 197 206 208 203 207 208 202 203 204 199 198 196 196 203 204 207 211 209 210 213 214 208 191 193 200 176 162 168 179 186 189 195 201 200 203 202 193 197 219 233 228 224 233 253 269 269 252 234 256 311 324 314 296 302 310 305 298 304 306 314 335 356 8 10 3
186 188 190 189 188 190 189 188 188 190 191 192 193 194 195 197 195 192 193 195 199 202 202 200 202 202 197 198 198 196 194 192 197 204 206 207 210 211 212 206 203 205 188 185 196 196 169 165 174 187 187 182 184 194 199 192 186 201 233 238 225 231 246 247 244 246 244 242 271 302 311 297 292 310 313 297 282 280 285 296 333 1 14 15 6
184 188 191 193 192 192 192 190 189 191 190 191 194 196 197 199 197 195 197 201 201 200 199 199 200 198 195 194 196 196 194 194 198 202 204 206 203 206 212 202 196 197 185 175 184 197 181 166 171 181 178 170 172 185 205 214 204 208 237 244 227 225 229 222 223 239 248 250 255 272 293 294 287 296 311 298 275 265 265 262 312 6 23 22 11
184 187 191 195 196 194 193 192 192 191 191 192 194 196 200 199 196 197 198 197 197 198 197 197 198 196 194 193 196 199 197 197 198 197 200 202 199 204 207 200 195 188 177 169 178 191 189 175 174 177 175 171 173 186 209 218 212 212 234 259 245 225 218 212 213 234 247 245 242 260 294 300 283 277 302 306 281 261 249 233 270 21 34 28 18
184 186 190 195 198 195 194 193 193 193 192 192 193 195 200 199 195 200 200 192 192 196 195 194 196 196 194 193 196 199 197 197 196 196 201 200 198 202 200 195 191 178 171 171 181 190 190 189 180 168 170 178 183 196 214 191 185 209 223 234 258 248 229 219 216 221 220 221 237 262 289 300 288 277 280 292 288 268 241 222 227 37 39 26 14
185 185 190 195 197 195 195 195 194 193 192 193 193 195 200 199 195 198 198 190 190 194 192 192 194 194 192 193 196 196 193 195 196 196 198 196 195 196 189 187 185 173 168 174 187 191 186 188 176 160 172 191 187 192 201 185 185 208 196 194 229 281 270 253 249 237 216 212 235 258 282 292 292 290 273 275 291 271 226 208 217 16 23 8 0
186 185 191 197 195 194 196 196 195 194 193 194 195 196 202 204 198 196 194 189 191 194 191 190 191 190 190 193 194 193 193 196 196 195 194 191 192 191 183 184 184 174 171 179 191 188 179 181 175 166 186 202 191 189 196 193 192 182 161 173 222 256 267 268 277 256 224 217 229 253 286 290 290 295 276 273 294 259 208 208 229 258 339 343 345
186 186 191 196 194 192 195 195 196 196 193 192 194 195 201 205 198 195 194 190 193 195 191 189 188 186 188 193 193 193 195 196 194 193 192 189 190 188 181 184 186 179 180 188 189 180 174 180 185 189 200 205 196 194 193 187 184 178 171 191 207 224 258 274 295 254 205 206 224 257 287 293 286 288 276 277 290 239 202 213 225 231 301 318 332
188 187 191 194 192 191 194 196 198 197 193 192 192 192 200 206 199 193 190 189 193 195 191 190 188 184 187 192 192 192 196 197 194 192 191 189 189 187 182 185 186 183 190 196 187 176 175 179 189 208 210 201 196 192 183 176 179 182 185 196 208 223 241 263 295 270 193 206 253 276 292 297 288 283 279 278 276 212 200 218 231 267 295 300 322
190 188 192 194 193 192 194 197 198 195 192 193 193 194 203 209 200 189 186 189 193 193 191 191 189 186 188 191 190 190 194 197 196 194 193 190 187 185 183 186 187 187 195 197 186 179 180 180 193 224 215 201 197 188 177 175 173 171 182 203 214 214 216 239 268 263 217 231 275 280 287 297 301 298 294 283 253 220 229 264 282 289 288 288 307
190 190 193 194 194 194 194 195 193 192 192 193 193 198 203 203 194 184 183 190 193 192 192 192 190 188 190 192 192 190 193 198 199 198 197 193 190 188 186 187 191 192 192 190 186 187 187 185 195 221 197 194 191 176 172 178 176 166 174 197 197 194 207 236 253 253 244 250 270 268 270 291 309 312 315 308 264 251 275 311 302 289 280 281 284
191 192 193 193 195 194 194 193 191 191 193 192 193 197 198 197 192 185 185 191 192 192 192 193 193 192 191 194 194 192 194 199 200 200 200 196 194 193 191 191 196 198 195 189 189 194 193 191 197 183 167 175 176 169 170 179 181 178 186 193 188 191 218 242 253 255 248 246 247 242 248 282 314 325 340 352 345 327 319 316 307 292 280 278 270
192 193 192 193 194 195 195 194 191 192 193 193 195 198 198 199 197 190 188 192 192 191 193 193 194 194 193 194 194 194 197 199 199 200 201 197 195 196 196 196 200 205 205 199 196 198 197 195 200 194 175 170 174 179 181 185 190 195 199 202 207 214 232 254 261 261 259 252 239 227 233 259 285 311 334 342 337 325 307 302 303 295 282 275 262
190 192 192 192 193 194 194 193 191 192 193 194 198 200 198 199 197 190 189 192 190 191 193 192 193 194 194 195 195 194 197 197 194 195 196 195 194 194 195 196 196 203 210 208 203 206 207 203 204 202 189 180 183 190 194 199 207 209 204 202 211 222 231 249 260 268 272 256 234 222 229 250 269 303 339 330 312 304 299 302 324 336 305 283 267
190 191 190 190 191 193 193 193 193 194 193 194 198 199 197 196 194 190 189 191 190 190 191 191 193 194 194 196 196 195 197 197 193 190 191 191 191 191 190 189 189 193 201 204 202 205 208 207 204 202 196 190 189 193 200 207 214 219 211 199 197 212 229 248 267 289 303 241 213 212 222 242 281 12 358 325 310 311 325 354 19 13 345 322 298
191 191 189 190 192 195 196 195 197 198 195 194 197 197 195 194 192 189 188 191 190 188 188 188 190 193 195 196 196 195 197 198 193 190 190 188 187 188 187 185 188 193 197 200 202 203 206 206 206 206 203 201 199 202 210 216 219 225 222 211 205 211 230 256 277 304 327 203 190 198 220 257 2 22 348 331 321 321 342 0 8 10 6 2 355